Theta_e
316 316 316 317 317 317 316 316 315 316 317 316 316 315 315 315 314 309 303 308 311 317 318 311 308 309 310 306 304 306 300 298 300 301 304 309 312 312 313 314 316 317 319 329 349
317 317 317 317 317 317 317 317 317 316 316 315 316 316 315 314 308 303 313 315 318 318 310 305 301 304 305 305 304 302 298 300 305 306 306 309 313 312 312 313 314 318 321 344 347
317 317 316 316 316 316 316 316 316 316 315 315 315 315 314 312 301 300 312 318 319 318 310 308 305 303 302 300 302 301 297 303 304 307 310 309 312 316 312 311 314 315 316 333 344
317 316 316 316 316 316 316 316 316 316 316 314 314 315 314 307 294 306 322 323 321 316 309 304 303 298 300 299 301 297 300 302 304 309 311 309 312 314 315 314 318 318 314 314 327
316 315 315 315 316 316 316 315 315 315 315 314 314 315 308 300 301 310 318 325 318 313 305 300 300 298 296 300 300 298 301 301 305 307 310 312 311 312 316 320 321 318 317 316 316
315 314 314 314 315 314 315 315 315 315 314 314 314 315 303 295 308 314 323 319 316 310 307 302 301 302 299 298 298 301 301 302 303 307 311 309 311 312 315 319 319 317 316 317 317
315 316 315 314 315 314 313 314 314 314 314 314 314 312 301 300 314 315 317 316 316 311 304 304 303 302 302 299 301 301 297 299 302 303 305 311 307 308 314 317 317 315 315 316 318
315 314 314 314 314 313 314 315 313 314 316 314 315 307 298 310 313 310 313 312 315 310 305 305 304 303 302 303 299 297 297 293 299 302 305 308 300 311 315 313 313 311 311 314 317
314 313 313 313 313 313 314 314 314 316 314 315 310 303 297 314 309 313 312 309 309 310 306 306 303 300 300 297 295 294 290 292 295 302 302 305 300 307 310 309 310 313 312 315 318
314 313 312 312 313 313 313 313 313 313 312 312 309 299 303 305 311 311 312 309 303 304 302 300 299 295 296 295 289 291 291 292 293 298 301 299 298 304 307 307 306 312 314 313 313
314 312 311 313 313 312 310 307 304 302 305 301 301 302 306 312 312 308 308 304 303 300 294 297 293 290 294 296 297 297 294 294 296 299 298 298 299 302 305 308 307 308 308 310 311
312 311 312 312 312 312 309 301 305 305 300 306 305 305 309 310 305 305 307 300 298 292 295 293 290 296 297 298 296 296 294 295 297 299 298 298 298 302 304 304 305 306 307 311 311
310 311 312 312 312 308 304 304 309 309 300 303 305 305 307 309 305 302 304 303 299 294 294 293 295 298 297 297 294 295 294 295 295 298 300 298 296 298 302 304 304 304 307 308 309
310 311 311 312 306 305 302 309 310 309 296 297 301 305 308 309 303 310 307 304 298 296 297 297 300 297 297 296 297 293 298 297 296 295 291 297 290 298 301 300 302 304 304 305 307
309 310 311 310 304 301 306 309 309 306 284 300 302 312 308 304 305 303 308 304 298 296 297 294 296 296 295 297 299 296 300 298 297 296 294 294 292 297 298 298 301 304 307 308 309
310 310 310 307 306 307 309 308 307 294 283 299 303 301 301 303 302 302 301 307 306 298 297 297 301 300 299 300 300 300 297 296 295 295 289 294 293 294 296 298 302 305 306 306 308
309 309 308 308 301 308 308 304 293 286 298 299 297 301 301 299 299 300 297 297 296 292 292 295 296 300 301 298 301 298 295 289 287 287 287 292 292 295 298 302 303 304 305 306 306
309 308 308 307 309 309 306 298 286 293 293 301 299 299 297 299 299 299 296 293 300 298 294 291 287 296 302 300 297 298 296 290 283 285 288 293 290 295 302 303 303 305 306 306 305
307 307 304 305 309 308 299 291 291 294 298 299 298 294 294 297 298 297 296 295 298 299 293 291 291 301 302 303 302 297 294 296 291 290 290 292 295 301 302 302 304 304 304 304 306
304 301 300 308 309 303 296 293 296 300 303 301 294 296 292 294 294 296 295 299 297 300 303 297 291 299 301 303 302 300 300 293 294 286 284 289 291 294 299 300 302 302 303 304 305
303 295 306 309 308 301 293 295 299 303 303 299 297 295 296 295 297 295 296 300 302 299 301 298 296 294 298 296 296 297 296 296 296 293 287 285 290 300 301 302 301 302 303 303 304
299 290 306 310 300 301 296 299 300 300 303 302 302 298 297 297 296 297 296 299 303 302 297 298 296 292 293 298 299 298 296 298 294 290 292 292 291 300 302 302 303 302 302 303 303
294 294 306 309 293 296 298 298 300 300 301 300 299 300 300 296 292 296 297 300 303 303 300 302 293 287 290 295 298 295 297 297 296 296 292 289 292 300 301 301 302 302 302 302 303
297 289 301 304 302 296 294 295 296 301 300 302 299 300 297 294 296 294 295 298 302 302 306 305 295 290 289 291 295 293 296 297 296 292 291 292 294 297 299 300 300 301 302 302 302
297 292 299 292 294 296 296 293 294 292 299 301 298 298 296 291 293 292 295 297 298 300 298 299 293 294 293 294 294 293 294 294 293 293 290 292 294 298 301 301 300 301 301 301 301
295 295 298 294 296 293 295 293 292 295 296 294 296 296 297 292 292 290 293 295 296 297 296 297 291 292 289 291 291 290 292 293 293 293 294 294 293 301 300 300 299 300 300 299 299
302 303 298 294 293 291 293 293 293 294 297 297 296 295 293 294 296 295 297 298 298 297 294 294 292 290 285 288 288 285 290 291 292 293 294 290 295 299 297 298 299 299 299 298 298
Wind_Speed
16 15 14 14 14 15 15 15 15 15 15 15 13 13 11 12 13 9 12 13 12 10 9 4 6 7 3 2 2 2 11 17 22 16 9 5 8 4 5 10 4 7 6 5 14
16 15 14 15 15 15 15 16 16 15 15 16 14 12 11 11 13 15 15 12 16 11 6 8 9 11 6 5 6 10 15 20 9 12 10 8 15 8 3 10 3 11 13 4 14
16 16 16 15 16 16 15 17 16 16 15 16 14 12 9 9 7 7 6 17 17 9 7 4 7 12 9 4 8 8 16 13 12 14 6 9 9 7 4 7 7 15 16 3 6
15 18 17 17 17 16 15 17 17 16 15 14 13 12 4 5 7 4 8 18 18 14 10 7 10 12 11 13 8 11 11 14 11 11 9 11 5 13 11 12 9 18 10 8 8
16 17 18 18 17 16 15 17 18 16 14 13 11 11 2 5 15 5 8 16 17 17 13 13 13 13 16 13 12 14 14 4 12 15 4 6 9 9 20 23 15 17 20 18 13
15 17 18 18 17 18 15 14 14 14 13 12 9 5 3 9 3 3 2 18 14 16 12 12 11 10 11 7 18 7 16 18 8 14 9 10 9 9 17 16 21 18 22 22 21
16 17 17 17 17 17 17 14 14 15 18 13 11 9 8 19 6 5 2 6 14 13 14 11 6 15 11 12 8 19 14 14 24 9 14 7 11 19 11 15 26 19 23 22 23
17 16 17 17 18 17 17 15 18 21 16 11 10 7 11 5 5 7 6 6 14 12 4 10 7 10 3 4 4 14 13 16 18 16 7 9 23 17 20 19 22 18 18 22 26
18 19 20 20 18 17 16 15 20 15 2 10 9 5 13 5 6 13 11 9 15 5 4 6 6 12 5 6 4 6 16 20 20 15 16 14 10 8 8 12 19 30 21 22 24
19 19 21 20 19 17 16 16 11 3 7 6 1 4 10 4 6 10 11 20 6 11 6 8 7 6 9 9 11 8 11 10 21 15 22 19 16 12 11 13 17 34 21 21 22
21 22 22 19 19 17 11 4 3 4 8 13 12 6 3 0 10 7 12 13 10 10 11 7 11 14 15 15 13 13 9 15 17 21 18 22 21 20 14 15 13 14 18 22 22
23 24 22 22 21 22 4 5 5 4 11 25 20 16 11 4 1 13 16 9 10 14 12 7 15 14 14 14 13 13 16 11 4 13 16 20 24 22 16 15 17 14 23 23 20
21 20 20 21 22 3 5 9 2 7 6 8 12 12 11 14 10 17 22 9 15 14 17 9 5 16 11 11 13 15 14 11 6 5 9 9 19 17 16 17 15 20 24 23 23
21 19 21 20 7 4 7 2 5 4 6 6 8 10 10 10 8 16 26 12 6 16 12 8 9 10 12 15 14 17 14 15 9 5 7 5 8 11 11 14 10 8 12 13 13
23 19 18 9 12 5 3 5 4 3 7 3 5 5 10 15 11 11 25 12 13 8 8 9 12 11 10 16 17 16 12 14 14 9 4 6 6 6 4 7 7 2 3 4 5
23 21 17 9 5 14 6 7 2 5 9 3 6 9 11 8 5 10 15 7 8 8 3 10 3 6 5 6 14 5 5 5 3 6 10 10 8 7 5 2 1 2 7 9 9
26 28 22 11 7 4 6 6 4 6 7 5 6 9 15 11 10 10 14 17 14 12 11 5 9 5 4 6 6 6 8 6 8 8 6 4 8 1 2 4 4 5 9 11 12
28 30 8 9 10 8 4 5 12 11 14 10 2 6 13 11 13 10 16 18 13 14 8 10 9 9 9 10 7 7 7 7 12 8 8 3 6 4 4 5 6 8 11 14 15
29 6 6 4 11 8 6 12 10 11 5 5 1 5 10 10 9 11 16 19 18 14 8 10 10 3 6 4 6 7 5 3 7 1 4 5 3 0 5 8 9 12 12 13 13
9 9 7 3 12 9 7 18 12 9 3 4 6 3 15 13 9 15 14 12 11 13 9 5 4 2 4 4 7 5 9 5 3 6 8 6 5 7 11 8 8 10 11 12 12
5 8 7 4 7 5 11 17 11 13 9 6 1 4 10 8 9 13 15 4 8 7 7 5 3 3 2 1 5 6 5 5 4 2 6 7 5 0 6 6 10 11 10 10 10
4 6 4 3 3 3 9 11 6 12 16 11 7 11 8 5 3 4 4 3 3 11 9 2 3 5 2 4 4 1 2 3 4 6 1 1 4 3 7 8 10 11 9 9 9
5 6 3 3 4 5 5 13 16 15 13 5 8 5 5 4 3 6 7 3 4 4 12 8 3 2 3 3 3 2 2 3 5 2 9 8 4 6 6 7 7 9 7 6 5
4 5 3 1 2 4 7 9 8 11 6 3 4 5 4 6 4 6 5 4 4 6 10 10 5 5 4 4 3 5 6 5 2 3 4 8 4 9 8 7 6 6 4 3 4
3 3 3 5 6 11 5 3 16 6 6 1 0 2 9 5 3 5 5 7 7 2 5 2 6 4 8 5 4 4 8 7 7 3 5 1 6 5 8 5 5 3 2 1 2
3 4 4 7 8 9 2 3 6 7 5 5 3 4 5 6 4 4 3 2 3 4 4 3 5 4 4 4 2 4 6 7 7 7 9 9 12 7 4 7 5 2 1 3 3
3 3 4 5 4 6 4 8 6 9 6 7 7 5 10 7 5 2 3 8 6 4 4 3 6 4 5 1 2 6 10 12 5 5 7 9 7 1 4 3 1 3 4 1 6
Wind_Direction
346 344 340 338 337 336 333 330 328 326 327 325 324 325 313 309 303 286 248 225 187 199 149 122 138 170 147 229 210 155 225 229 220 225 225 216 172 82 352 5 32 9 321 342 137
342 338 337 335 335 334 332 328 325 323 322 325 322 322 318 315 294 259 246 213 202 168 209 201 161 163 176 201 197 213 229 231 240 234 227 201 195 148 12 342 358 30 19 83 139
332 333 331 331 331 328 326 323 322 320 322 327 322 318 319 329 274 239 228 200 188 176 198 195 152 163 193 189 197 212 239 239 238 237 249 227 214 203 191 269 17 344 349 344 182
329 328 327 323 322 320 318 316 316 318 318 324 318 307 325 323 277 139 56 160 172 174 181 176 161 173 193 203 199 227 222 242 249 232 227 223 249 224 205 245 333 330 342 346 276
326 324 323 320 319 315 312 311 310 311 309 313 307 297 289 249 251 286 309 149 155 165 178 185 173 186 194 203 215 227 222 198 228 249 212 166 203 224 217 237 299 321 326 325 320
327 326 323 320 316 313 307 301 297 295 297 298 284 254 212 255 216 283 351 152 155 171 175 181 203 185 197 221 213 213 233 241 254 233 213 212 190 173 228 232 273 303 305 311 317
318 312 320 320 318 315 310 304 301 297 290 273 258 186 234 251 130 53 90 176 167 172 177 176 211 199 153 200 232 228 251 233 233 242 234 189 229 215 205 243 245 274 285 295 303
321 320 323 319 317 314 312 305 306 304 296 223 217 176 251 236 239 236 171 144 160 155 185 217 246 226 188 143 171 220 228 235 232 220 206 202 249 227 209 219 244 278 287 290 293
322 322 318 317 315 314 310 306 307 312 189 164 144 195 259 289 222 208 169 152 164 137 156 187 223 242 193 164 184 198 225 219 228 218 218 211 256 263 225 185 225 259 277 277 279
317 317 319 320 318 315 312 302 296 287 123 150 127 208 240 217 161 146 171 151 149 142 135 178 200 243 210 201 192 203 223 226 222 202 220 212 230 216 163 193 227 244 275 276 267
320 321 320 319 316 313 317 315 198 204 225 204 193 243 266 326 132 167 151 152 124 168 170 186 205 210 225 207 240 247 247 230 225 212 206 218 226 231 219 206 207 235 264 264 266
324 324 322 320 314 313 249 219 241 352 281 225 231 246 271 314 232 145 164 156 154 180 167 177 224 216 222 237 235 240 260 239 296 192 203 216 229 228 215 221 213 206 239 258 275
322 317 317 312 310 289 239 238 258 352 261 255 206 226 225 189 218 179 181 167 166 173 192 195 213 208 201 238 238 234 245 252 242 153 221 195 229 233 219 229 215 220 227 239 245
321 316 318 324 296 333 266 302 254 209 270 241 210 237 180 174 215 169 188 166 161 190 191 219 215 183 208 230 219 243 228 242 249 225 230 223 214 203 178 197 210 201 200 218 218
320 316 312 320 294 260 322 8 85 209 288 176 164 141 154 182 135 183 184 191 180 163 179 191 179 190 216 228 202 244 224 228 235 229 223 190 238 165 158 209 167 232 57 33 28
314 313 308 292 227 250 261 336 215 240 246 261 153 171 162 198 181 132 174 209 163 155 210 191 195 188 213 201 198 131 141 124 155 206 231 215 234 193 167 118 128 69 27 26 18
315 312 304 262 237 247 198 175 200 229 298 225 195 181 184 176 182 174 176 190 181 182 192 179 203 208 190 207 154 189 185 178 193 199 227 172 202 50 51 29 340 20 52 56 53
311 310 286 238 225 231 258 187 210 214 228 285 67 269 194 159 200 176 176 192 193 192 182 199 210 200 190 220 216 193 219 232 216 191 179 167 210 126 23 52 85 89 77 64 57
319 310 292 252 206 181 228 211 209 217 250 329 16 126 272 191 180 176 192 195 198 191 191 186 215 166 201 172 200 155 207 83 107 29 205 148 107 22 97 85 88 81 69 60 62
319 318 290 331 154 149 218 230 232 220 68 299 213 192 210 216 172 192 179 197 183 200 206 189 147 114 112 140 64 233 132 176 155 191 223 163 185 145 163 126 92 69 73 77 73
304 319 359 130 179 185 217 227 254 269 296 265 233 301 274 181 215 183 178 107 154 149 165 139 193 148 226 36 180 152 160 79 88 352 237 230 164 209 151 130 104 101 96 87 77
304 303 136 273 243 218 246 248 271 261 266 271 190 189 269 336 169 124 130 57 32 149 136 90 86 144 143 353 282 347 107 175 184 177 92 310 132 67 124 124 127 125 119 106 96
305 285 307 230 261 293 295 290 287 271 285 279 218 157 167 271 53 124 168 311 146 130 151 132 71 161 181 184 156 153 83 93 94 84 205 223 141 133 133 125 125 126 119 110 89
290 309 279 299 317 336 340 295 275 334 316 85 310 182 126 199 157 160 136 53 67 85 103 107 125 212 226 79 113 155 144 138 144 193 206 239 165 173 176 152 146 146 129 103 49
222 251 346 312 325 322 284 264 298 270 339 132 298 7 142 27 331 95 108 118 64 27 72 94 134 152 91 99 80 141 164 164 195 170 238 110 233 223 212 199 161 138 161 210 9
280 308 345 294 301 309 304 312 302 295 359 359 282 138 121 138 122 2 236 110 120 72 76 25 108 124 108 82 98 230 241 242 238 242 257 269 274 284 92 124 153 168 280 266 336
338 302 295 279 294 303 325 338 303 275 110 72 23 89 94 101 70 293 349 75 91 111 106 84 133 135 152 134 179 246 238 223 209 208 239 242 280 145 126 132 77 324 316 312 344